Dewpoint
-4 -5 -7 -12 -13 -12 -9 -6 -4 -2 -1 2 5 8 8 7 4 -0 1 -3 -1 2 1 2 3 2 1 -0 -1 -2 -1 0 -2 -3 -5 -8 -10 -8 -7 -6 -4 -3 2 8 12
-4 -3 -5 -6 -8 -11 -13 -13 -11 -8 -5 -3 -0 5 7 8 7 4 -1 -1 -3 1 2 2 2 2 0 -2 -2 -2 -0 -1 -4 -6 -6 -8 -9 -8 -7 -5 -4 -3 5 6 12
-2 -2 -2 -3 -5 -7 -10 -13 -13 -10 -7 -4 -3 -2 4 6 8 6 -2 -4 -4 -4 1 2 1 1 0 -1 -2 -2 -1 -3 -5 -6 -6 -7 -7 -7 -6 -5 -7 -3 5 6 11
-1 -1 -1 -2 -3 -5 -6 -8 -12 -11 -7 -4 -2 -1 -3 3 9 3 1 0 -1 -3 -2 1 2 1 -0 1 -1 -1 -3 -3 -4 -5 -6 -6 -8 -7 -6 -4 -6 -6 3 5 10
-2 -1 -1 -0 -0 -1 -1 -2 -5 -10 -9 -6 -3 0 -0 1 4 6 6 3 3 -1 0 -0 0 2 1 -0 -1 -0 -2 -3 -4 -5 -5 -5 -6 -7 -6 -6 -5 -4 2 5 9
-7 -5 -4 -3 -4 -2 -1 -2 -2 -4 -9 -9 -4 -2 0 1 2 6 5 5 4 3 1 -1 -1 0 0 -0 -0 -1 -1 -2 -3 -3 -5 -5 -4 -5 -5 -6 -5 -5 -3 1 6
-7 -8 -7 -7 -5 -5 -3 -3 -3 -2 -4 -9 -6 -2 2 -1 -3 3 5 4 4 4 3 0 -1 -1 -1 -0 -1 -1 -0 -2 -2 -3 -3 -4 -3 -3 -5 -5 -5 -5 -5 -3 -2
-7 -8 -7 -8 -9 -8 -7 -4 -4 -5 -2 -6 -4 0 2 -0 -3 -5 -0 1 3 4 4 2 0 -1 -1 -1 -1 -1 -0 2 -1 -2 -3 -3 -0 -3 -5 -5 -5 -5 -5 -4 -3
-8 -11 -10 -9 -8 -8 -8 -8 -8 -8 -2 -3 -1 2 1 0 -2 -1 1 2 3 4 3 3 2 1 0 1 1 -0 2 1 0 -3 -3 -3 -1 -4 -5 -5 -4 -5 -5 -5 -3
-9 -13 -12 -8 -7 -7 -9 -10 -15 -6 0 1 1 2 1 -1 -0 2 4 5 6 6 7 1 3 4 2 2 4 3 2 1 1 -2 -2 -2 -2 -3 -5 -5 -4 -5 -5 -5 -4
-4 -8 -14 -13 -11 -9 -8 -2 -5 -1 3 1 0 1 -1 -3 -1 -0 3 5 4 6 9 1 6 6 4 2 1 1 1 0 -1 -2 -2 -2 -2 -3 -4 -4 -5 -6 -5 -5 -5
-14 -15 -16 -17 -16 -11 -3 0 -0 1 2 -1 -2 -3 -3 -2 -2 -1 1 4 5 7 7 7 6 4 2 1 1 1 0 0 -1 -2 -2 -2 -3 -5 -5 -4 -5 -5 -6 -5 -5
-10 -15 -19 -20 -20 -3 0 -1 1 1 0 -3 -5 -5 -6 -6 -4 -2 1 3 4 4 7 9 3 3 2 1 2 1 1 0 -0 -2 -3 -2 -2 -3 -5 -4 -5 -6 -7 -6 -5
-9 -9 -12 -22 -7 -2 -4 -1 -0 -0 1 -5 -8 -7 -6 -6 -2 -1 -2 1 4 5 5 7 6 2 3 3 0 2 -1 -1 -1 -1 -1 -4 2 -1 -2 -3 -4 -5 -6 -5 -5
-11 -8 -9 -10 -8 -2 -4 -2 -2 -0 2 -12 -12 -6 -7 -3 -5 2 -0 -0 3 5 6 7 7 6 3 3 1 1 -2 -1 -1 0 -0 -2 0 -0 -3 -2 -2 -3 -5 -5 -4
-11 -12 -12 -4 -3 -4 -2 -0 -1 2 -0 -9 -11 -5 -0 0 -2 -2 0 1 3 4 4 4 3 4 5 2 1 -0 -0 -1 -1 0 3 1 1 1 0 -2 -3 -5 -6 -6 -5
-8 -8 -16 -5 -3 -3 -3 -1 1 1 -9 -9 -5 -6 -5 -9 -2 1 1 4 3 5 6 4 5 4 4 7 5 4 2 6 7 7 9 3 2 1 -2 -3 -4 -4 -5 -6 -6
-6 -6 -6 -3 -1 -3 -2 -1 -1 -7 -7 -10 -5 -6 -11 1 3 2 4 5 4 5 7 6 7 5 5 6 7 5 6 9 11 11 9 6 8 4 -2 -5 -5 -6 -6 -6 -6
-8 -3 -4 -6 -4 -3 -1 -1 -5 -8 -11 -5 -4 -6 -8 -8 1 2 3 3 3 2 5 8 8 5 5 5 6 7 7 5 8 5 6 4 3 2 -1 -3 -4 -5 -5 -6 -6
-4 -4 -5 1 -4 -2 -1 -3 -6 -9 -9 -8 -2 -6 -8 -8 -4 -4 2 2 3 2 1 4 7 -0 5 6 7 9 7 9 8 11 11 4 4 3 0 -1 -3 -3 -4 -6 -6
-4 -4 -6 -4 -5 -0 0 -3 -6 -9 -9 -2 -1 -7 -6 -7 -8 -7 -6 -3 0 2 0 3 4 6 1 8 8 8 8 9 8 10 10 8 4 -1 -1 -1 -2 -2 -3 -2 -2
-3 -1 -5 -1 -2 -0 -1 -5 -7 -7 -6 -4 -2 -2 -4 -9 -8 -6 0 -2 -2 -3 1 2 2 4 7 6 5 6 7 8 9 10 10 7 5 -0 1 -0 -0 -0 -2 -2 -2
-4 -5 -7 -6 -0 -1 -5 -7 -8 -7 -6 -2 -1 -5 -6 -6 -4 -5 -4 -1 -4 -2 0 -0 2 4 2 5 2 5 4 4 5 7 8 10 8 1 1 1 2 4 3 2 -0
-2 -2 -3 -6 -4 -5 -5 -4 -6 -9 -8 -6 -4 -6 -5 -3 -6 -4 -4 -2 -3 -3 -1 -1 1 1 3 3 3 4 4 4 4 8 9 7 5 2 3 4 3 4 2 1 1
-2 -2 -5 -2 -1 -5 -7 -7 -7 -9 -12 -12 -8 -5 -2 1 -1 -4 -5 -5 -4 -4 -2 -0 1 0 0 -0 1 2 4 4 4 5 6 7 6 3 3 6 3 2 2 2 2
-3 -2 -5 -5 -7 -6 -6 -6 -7 -8 -9 -8 -5 -6 -5 -2 0 1 3 -1 -1 -5 -3 0 1 0 1 -2 -3 -2 -1 -1 0 1 2 2 3 -0 0 5 5 2 1 3 3
-3 -4 -3 -4 -5 -4 -5 -7 -8 -9 -9 -10 -7 -6 -4 -6 -6 -4 -2 -1 -4 -3 -2 1 3 1 -0 -2 -1 2 -1 -4 -4 -4 -3 -0 -0 -2 -1 4 5 2 -1 -1 -0
Wind_Speed
17 17 18 18 19 21 24 23 23 24 24 26 25 25 27 33 32 29 35 34 18 16 26 22 16 19 22 27 26 25 15 16 22 21 19 14 13 13 14 17 8 12 7 22 22
16 16 17 18 19 20 21 24 25 25 25 26 27 25 24 24 34 40 37 33 30 23 23 20 23 22 27 29 29 21 15 24 23 21 18 15 10 16 10 11 12 16 12 13 23
17 17 17 17 18 20 21 22 24 25 25 26 27 29 25 20 23 44 34 36 36 32 28 23 25 26 29 29 30 27 23 20 24 24 15 10 7 16 16 14 20 17 17 18 23
17 18 18 18 19 20 20 21 22 24 24 24 27 27 30 25 9 5 10 12 32 30 32 29 28 33 24 25 31 24 28 27 29 32 10 11 15 17 17 13 20 19 29 27 25
17 17 18 19 20 20 21 23 23 23 25 24 24 25 28 16 32 17 24 13 15 30 36 36 33 31 27 25 29 27 24 32 32 30 21 15 20 16 19 21 20 6 13 25 24
18 18 19 20 21 21 22 24 24 23 23 24 23 23 20 19 41 34 26 20 9 15 34 39 32 33 28 29 26 29 29 29 31 33 24 18 18 21 21 19 19 21 17 17 25
18 19 19 21 22 23 24 24 24 24 23 22 22 20 20 40 38 28 26 28 23 24 28 38 40 28 37 25 33 34 25 25 26 26 23 24 22 22 26 23 23 26 25 22 24
19 19 20 21 22 23 24 25 25 24 23 20 19 18 21 25 33 44 47 40 30 25 31 28 36 40 42 32 34 25 26 24 24 23 24 23 22 21 28 26 27 23 27 26 26
19 19 20 21 22 24 25 26 26 24 20 18 16 16 22 18 22 23 19 32 34 32 27 29 29 37 36 28 21 26 24 31 26 24 22 24 21 20 27 32 29 27 25 29 29
20 19 20 21 23 24 25 26 26 19 20 11 19 11 21 17 11 13 11 17 22 28 30 32 29 20 22 22 24 31 31 23 25 23 23 27 24 20 30 31 30 33 29 28 29
20 20 20 22 23 22 27 25 16 4 13 13 13 19 29 23 14 17 11 20 22 24 20 36 20 24 34 34 31 26 27 31 27 22 27 27 25 24 24 32 25 29 33 33 33
21 21 21 22 21 21 16 10 15 16 14 25 34 42 43 36 37 30 16 11 15 17 21 21 27 32 33 31 29 32 30 31 25 24 24 24 28 23 23 22 29 29 27 34 32
21 22 21 23 19 11 15 17 13 16 10 27 39 40 37 27 39 35 14 13 11 7 23 28 31 33 29 31 33 35 33 30 28 24 26 24 27 25 21 27 30 35 34 27 31
21 21 22 22 12 14 16 15 17 18 6 11 12 9 16 20 12 29 34 17 9 8 18 21 27 33 31 33 32 31 35 28 27 24 21 26 19 20 25 23 24 30 32 33 35
22 23 23 18 21 15 17 21 19 10 7 10 4 5 3 14 3 3 16 23 19 8 4 4 17 30 35 39 32 32 24 30 28 20 21 25 16 21 23 24 25 25 35 32 33
24 24 24 18 14 15 17 18 15 5 7 7 15 11 5 5 18 9 4 16 4 12 13 9 23 11 22 23 28 28 24 22 21 20 21 23 22 25 23 24 26 27 39 35 34
24 25 25 19 19 15 15 14 5 6 12 12 15 12 16 17 10 11 21 8 8 5 14 19 15 14 16 14 23 22 23 16 15 17 9 26 24 26 21 28 25 24 28 40 49
25 27 20 17 13 12 12 3 7 10 14 18 18 29 20 26 12 8 7 15 10 8 4 13 13 13 12 14 14 26 23 12 20 12 22 23 16 30 38 19 27 18 58 37 34
25 21 22 17 14 12 5 6 6 11 13 11 18 21 20 13 9 11 8 15 5 11 7 7 6 3 10 15 19 21 22 28 10 16 12 14 18 29 27 30 32 30 31 26 34
19 23 22 5 4 9 4 13 13 18 23 23 18 21 27 23 13 12 2 3 2 3 3 5 6 19 14 16 15 13 10 16 17 9 16 20 25 21 25 32 24 28 32 42 39
15 11 14 11 7 5 5 9 15 22 24 12 22 19 20 21 20 18 7 8 6 6 5 6 4 2 16 11 15 6 5 11 5 9 11 13 21 34 16 19 28 30 32 22 21
13 5 5 6 9 3 6 9 14 19 24 16 9 17 24 21 20 20 14 12 6 5 2 1 5 4 3 10 13 16 8 16 7 10 6 16 7 13 12 23 21 27 38 25 20
9 17 17 15 5 7 12 19 20 16 15 6 8 17 19 20 19 15 8 5 2 2 1 2 3 4 4 7 13 5 2 4 1 4 24 13 9 14 10 6 10 14 23 16 13
7 3 4 7 12 14 15 14 14 18 18 17 16 19 19 18 17 11 17 7 14 11 6 5 4 2 6 5 2 5 9 4 5 2 5 22 20 8 16 18 21 13 17 14 11
5 4 8 5 8 14 18 16 20 20 22 22 18 17 13 10 19 17 16 13 10 3 5 4 4 6 7 9 9 13 11 7 4 6 5 9 22 20 17 14 14 4 13 13 12
5 4 8 17 21 17 15 16 19 19 19 21 14 20 19 7 13 17 12 10 6 6 6 6 4 4 7 11 10 14 14 13 13 12 14 16 18 14 6 14 17 18 17 18 14
15 18 14 12 13 12 13 18 20 19 23 22 18 18 19 17 16 17 15 22 14 14 15 6 2 2 3 6 3 8 19 18 16 17 14 16 13 10 9 3 13 17 17 15 15
Wind_Direction
340 338 338 339 335 330 324 322 316 314 318 303 302 283 277 274 270 264 259 255 245 259 265 260 259 234 228 233 231 229 244 249 250 259 264 277 192 186 227 253 170 183 66 146 152
334 328 327 329 334 335 331 326 323 320 312 312 303 298 289 283 275 267 255 251 247 234 258 253 247 229 231 231 230 227 237 242 251 246 310 218 192 227 200 240 239 214 139 148 157
336 331 327 324 326 330 332 329 324 322 320 315 309 297 294 325 290 273 273 259 251 239 236 249 245 238 234 229 228 232 237 246 250 273 293 306 207 227 221 220 223 197 165 166 166
336 334 328 325 324 326 326 327 324 320 319 319 316 312 294 292 247 91 49 335 248 237 234 239 246 251 239 230 232 233 237 242 262 272 244 276 252 237 247 232 247 232 184 176 178
326 330 332 329 324 321 321 320 319 318 317 313 315 316 322 275 253 239 295 298 310 229 223 223 231 234 239 238 234 236 235 238 239 249 259 238 263 243 237 232 254 257 156 177 183
326 320 316 316 319 319 318 320 314 312 313 312 307 310 310 269 257 247 274 269 268 249 230 222 226 225 242 238 240 239 244 246 247 258 233 239 242 253 250 254 244 250 196 206 193
331 324 323 317 315 310 309 311 317 309 307 308 305 299 273 258 263 248 256 285 258 270 240 229 228 231 233 245 240 249 251 248 240 240 250 218 238 235 243 247 234 239 230 208 219
326 325 325 320 317 314 308 304 305 311 307 299 295 286 263 278 290 260 260 273 274 268 255 235 225 235 244 244 245 246 242 249 239 234 229 235 237 228 235 238 244 229 229 229 219
325 321 320 321 319 316 311 308 304 299 300 286 278 256 270 276 295 291 284 271 276 275 253 237 242 232 226 238 242 231 240 230 241 236 223 227 229 236 236 225 233 236 225 226 218
325 322 318 318 319 322 316 312 305 291 282 273 250 261 256 269 270 291 258 264 274 281 281 228 234 234 224 217 222 217 227 236 235 225 235 231 230 230 240 247 221 219 229 223 224
332 326 319 315 319 325 322 330 338 296 244 225 243 221 273 279 292 296 272 282 261 270 255 213 219 214 217 218 224 231 226 228 235 234 226 245 233 226 218 243 237 224 210 221 218
334 332 324 317 321 326 328 308 307 308 281 275 270 268 265 268 272 267 271 276 223 252 235 240 219 218 216 217 223 229 236 233 233 228 243 245 237 241 229 227 237 254 226 214 217
338 334 327 321 328 338 324 312 316 320 280 286 268 261 265 254 251 253 226 251 245 283 243 229 209 220 223 218 215 227 227 233 242 224 229 233 248 245 222 233 242 239 241 221 223
331 333 332 331 338 323 315 337 328 320 280 285 253 257 240 246 274 243 237 222 190 240 247 247 238 222 224 233 220 220 225 232 232 239 244 228 233 230 237 232 238 245 239 211 221
329 329 328 336 309 314 314 315 314 310 279 301 289 152 262 179 202 79 244 194 249 208 250 211 227 239 223 226 230 234 225 219 235 242 247 244 238 229 228 224 232 238 244 226 217
328 326 326 325 300 293 307 318 310 243 251 269 293 13 78 318 259 267 110 200 259 253 254 262 285 294 263 268 236 249 253 253 245 230 239 239 245 240 226 238 230 228 230 235 225
322 324 319 302 287 301 312 315 282 237 321 293 348 281 257 282 229 224 241 182 213 222 221 244 254 248 263 285 272 268 228 237 240 237 239 228 232 244 212 224 243 246 236 222 223
317 322 323 305 285 288 294 297 256 284 281 305 324 316 297 28 50 7 342 250 204 254 279 214 250 191 200 220 239 235 231 209 209 200 217 217 217 238 231 250 254 276 235 239 237
316 322 305 294 280 263 245 244 264 282 298 334 327 306 319 334 357 345 11 1 86 28 308 201 209 200 198 203 219 236 229 219 259 247 229 213 223 251 241 238 243 255 263 282 243
315 312 303 331 267 239 212 249 272 294 304 306 294 300 301 318 331 325 32 182 151 90 108 312 264 238 203 212 223 229 258 206 219 196 223 222 206 230 214 227 234 230 242 249 248
306 300 297 296 313 220 240 252 276 284 293 311 308 301 300 314 320 316 316 227 159 147 120 288 264 275 207 192 201 201 211 222 243 218 203 211 220 231 242 230 225 238 245 222 205
283 283 291 306 299 227 270 278 287 288 301 305 277 301 291 307 308 310 21 33 137 33 73 254 297 284 245 297 223 195 218 229 210 172 230 230 253 183 217 232 226 225 224 218 208
288 279 285 278 265 276 282 286 288 288 306 297 284 285 300 294 302 304 341 343 133 51 53 255 17 297 233 194 37 3 8 344 339 286 205 198 221 260 294 344 64 73 71 63 106
287 290 295 258 269 291 299 307 307 307 300 304 302 301 304 288 279 277 302 195 268 318 199 242 187 251 305 324 297 300 333 349 333 270 208 213 219 218 36 15 10 74 88 87 89
244 248 273 290 276 281 289 298 303 299 293 289 298 298 321 310 288 279 283 286 320 181 180 243 259 213 258 264 271 295 297 310 307 315 270 209 229 231 20 339 342 309 103 91 91
253 255 278 285 287 284 288 289 289 294 304 308 297 304 307 292 311 318 308 304 300 283 327 196 255 224 271 270 268 284 279 271 260 255 272 276 278 285 265 312 322 336 353 15 359
250 267 276 272 277 282 278 284 289 303 298 291 289 298 296 301 312 290 293 289 264 276 281 232 260 300 302 34 48 290 248 245 252 254 253 257 265 284 320 30 287 302 328 328 321
Height
1498 1497 1496 1494 1493 1490 1488 1486 1485 1485 1483 1483 1482 1480 1479 1478 1476 1476 1469 1474 1479 1480 1481 1481 1482 1483 1483 1480 1480 1480 1478 1471 1462 1453 1441 1433 1438 1444 1449 1449 1448 1452 1455 1461 1469
1497 1497 1495 1493 1491 1488 1486 1484 1483 1482 1481 1479 1479 1478 1476 1474 1471 1462 1468 1470 1472 1476 1478 1479 1478 1478 1477 1474 1474 1471 1467 1462 1451 1439 1438 1434 1439 1444 1448 1450 1450 1453 1456 1462 1468
1496 1495 1494 1491 1489 1487 1484 1482 1481 1479 1478 1476 1475 1474 1474 1473 1468 1449 1462 1462 1466 1470 1473 1475 1476 1473 1470 1467 1465 1462 1456 1454 1447 1445 1442 1436 1438 1443 1442 1447 1448 1450 1454 1461 1466
1495 1493 1491 1489 1487 1484 1483 1481 1479 1477 1475 1474 1472 1471 1471 1475 1467 1453 1456 1458 1457 1464 1468 1469 1470 1467 1461 1458 1458 1456 1450 1453 1448 1444 1442 1442 1441 1441 1441 1445 1444 1444 1445 1454 1461
1493 1491 1489 1487 1485 1482 1480 1479 1476 1474 1472 1472 1471 1469 1467 1468 1453 1447 1446 1449 1453 1455 1457 1460 1464 1462 1453 1453 1454 1446 1445 1447 1444 1441 1440 1443 1441 1440 1440 1444 1443 1446 1449 1452 1459
1490 1488 1486 1485 1483 1480 1478 1476 1473 1471 1469 1468 1468 1467 1468 1463 1451 1447 1441 1443 1446 1454 1453 1454 1452 1455 1452 1450 1446 1443 1443 1438 1439 1437 1437 1440 1441 1441 1440 1442 1443 1444 1446 1451 1453
1488 1486 1484 1482 1480 1477 1475 1473 1470 1468 1466 1465 1464 1464 1460 1439 1446 1441 1443 1440 1439 1440 1447 1447 1451 1450 1450 1442 1442 1441 1439 1433 1429 1430 1431 1436 1438 1436 1438 1440 1440 1441 1442 1445 1450
1486 1484 1481 1479 1476 1473 1471 1469 1466 1464 1463 1462 1461 1461 1448 1438 1436 1432 1436 1436 1435 1434 1437 1440 1443 1443 1442 1441 1440 1436 1435 1432 1417 1422 1425 1430 1433 1429 1434 1435 1434 1434 1437 1439 1443
1484 1482 1479 1476 1473 1470 1467 1464 1461 1460 1458 1457 1458 1459 1441 1434 1427 1425 1427 1431 1433 1428 1426 1433 1433 1428 1436 1435 1434 1428 1426 1420 1422 1416 1419 1419 1424 1423 1424 1425 1428 1429 1430 1433 1436
1482 1479 1477 1474 1471 1468 1464 1459 1454 1453 1453 1454 1454 1456 1438 1429 1426 1425 1423 1429 1432 1429 1426 1425 1424 1420 1418 1420 1420 1408 1414 1415 1413 1411 1410 1411 1411 1417 1418 1417 1416 1419 1423 1426 1428
1481 1477 1475 1472 1469 1466 1461 1456 1452 1451 1451 1447 1442 1435 1428 1429 1424 1423 1424 1427 1428 1428 1420 1410 1411 1403 1398 1395 1395 1405 1402 1407 1402 1400 1407 1402 1400 1402 1406 1409 1405 1408 1413 1417 1421
1479 1476 1473 1470 1467 1465 1462 1461 1460 1458 1445 1442 1435 1427 1422 1425 1418 1422 1426 1426 1419 1415 1414 1411 1401 1391 1390 1392 1397 1398 1398 1393 1389 1394 1399 1395 1392 1392 1392 1394 1399 1400 1401 1406 1412
1478 1475 1471 1468 1466 1464 1464 1461 1458 1455 1446 1431 1415 1413 1409 1412 1406 1412 1422 1421 1415 1415 1403 1395 1383 1383 1385 1386 1391 1387 1388 1386 1387 1387 1387 1392 1392 1386 1382 1388 1390 1393 1394 1397 1403
1477 1474 1471 1467 1466 1464 1462 1460 1457 1455 1444 1416 1401 1396 1400 1401 1402 1405 1410 1419 1411 1407 1405 1398 1393 1385 1384 1377 1376 1380 1376 1379 1387 1392 1398 1376 1399 1384 1378 1380 1384 1383 1384 1388 1396
1475 1472 1470 1468 1465 1465 1463 1458 1456 1455 1439 1399 1389 1392 1395 1399 1395 1400 1402 1410 1408 1402 1399 1396 1393 1389 1375 1368 1371 1364 1367 1377 1380 1384 1386 1380 1390 1372 1369 1373 1372 1375 1378 1379 1385
1474 1471 1468 1466 1465 1463 1460 1457 1455 1453 1431 1400 1389 1394 1399 1404 1403 1400 1401 1407 1406 1404 1399 1403 1401 1398 1381 1373 1375 1373 1379 1377 1374 1379 1394 1382 1384 1363 1366 1361 1363 1365 1368 1370 1375
1472 1469 1465 1464 1460 1460 1459 1458 1454 1442 1410 1398 1398 1397 1396 1383 1384 1394 1394 1402 1402 1401 1390 1389 1393 1394 1395 1393 1381 1385 1383 1401 1403 1394 1403 1375 1376 1353 1342 1349 1351 1352 1352 1357 1364
1469 1466 1462 1459 1459 1459 1459 1459 1451 1422 1414 1405 1407 1394 1381 1400 1398 1402 1392 1389 1397 1396 1386 1379 1380 1381 1385 1389 1383 1380 1375 1389 1397 1392 1379 1377 1392 1348 1318 1347 1342 1334 1336 1348 1352
1465 1462 1458 1456 1456 1456 1459 1454 1436 1424 1414 1416 1415 1395 1383 1387 1408 1402 1399 1396 1397 1402 1391 1371 1371 1369 1373 1375 1386 1376 1372 1364 1381 1364 1368 1356 1363 1342 1343 1339 1338 1338 1334 1339 1344
1463 1460 1454 1449 1452 1453 1455 1445 1433 1426 1421 1419 1419 1410 1394 1386 1395 1392 1394 1401 1401 1402 1404 1390 1369 1356 1362 1372 1374 1375 1375 1380 1380 1382 1379 1352 1349 1335 1327 1325 1328 1330 1333 1335 1338
1462 1458 1452 1451 1450 1451 1445 1436 1430 1425 1421 1424 1417 1402 1395 1392 1390 1384 1380 1382 1395 1399 1399 1398 1383 1356 1351 1361 1364 1376 1372 1368 1369 1372 1364 1353 1338 1294 1320 1315 1322 1320 1320 1321 1328
1461 1458 1451 1450 1452 1448 1442 1435 1430 1424 1423 1419 1418 1411 1399 1390 1387 1382 1392 1385 1391 1390 1393 1397 1390 1367 1359 1353 1352 1359 1366 1361 1361 1360 1361 1335 1324 1301 1300 1303 1302 1304 1309 1314 1321
1459 1452 1449 1448 1445 1439 1434 1428 1424 1422 1419 1420 1415 1406 1399 1393 1393 1383 1385 1397 1391 1389 1392 1394 1390 1372 1345 1355 1373 1374 1383 1381 1369 1364 1344 1342 1325 1298 1301 1300 1298 1299 1307 1316 1320
1459 1452 1447 1444 1443 1439 1434 1429 1423 1421 1418 1417 1413 1405 1400 1394 1391 1388 1384 1390 1388 1387 1391 1393 1388 1389 1382 1388 1390 1383 1382 1382 1374 1359 1346 1330 1311 1301 1314 1319 1324 1314 1318 1323 1325
1457 1450 1447 1442 1440 1437 1432 1428 1423 1419 1415 1411 1407 1405 1404 1404 1392 1386 1384 1383 1386 1388 1389 1393 1390 1386 1382 1381 1384 1382 1380 1377 1376 1375 1363 1330 1321 1308 1333 1338 1336 1336 1328 1327 1328
1453 1450 1445 1441 1437 1434 1430 1428 1422 1418 1415 1410 1409 1405 1402 1406 1409 1401 1394 1386 1385 1382 1383 1389 1383 1378 1376 1371 1371 1373 1371 1366 1369 1365 1360 1351 1344 1336 1335 1336 1342 1343 1338 1335 1336
1448 1446 1445 1435 1433 1432 1428 1423 1418 1417 1414 1410 1409 1404 1400 1395 1395 1393 1390 1388 1385 1383 1381 1384 1387 1380 1375 1371 1376 1382 1359 1353 1355 1352 1349 1345 1338 1335 1337 1347 1351 1349 1342 1341 1340